CCA1362 ZJHK-ZBAA

Flight info

Callsign CCA1362
Flight time N/A
Altitude 33100
Route AGTEL W71 LH R339 BHY W159 IVPUB W120 ENKUS H145 JW W2 SJG W102 EMVIL W284 UPSIK W4 VADMO W56 DUGEB
Aircraft A21N/M-SDE3FGHIRWYZ/EB1

Departure

Time 2026-04-27 05:33
Airport Haikou Meilan International Airport (ZJHK)

Arrival

Time N/A
Airport Beijing Capital International Airport (ZBAA)
Time Latitude Longitude Altitude Speed Heading
2026-04-27 04:33 19.93976 110.45528 82 ft 0 kts 326°
2026-04-27 05:20 19.93975 110.45529 82 ft 1 kts 326°
2026-04-27 05:21 19.93962 110.45538 82 ft 2 kts 326°
2026-04-27 05:21 19.93950 110.45547 82 ft 2 kts 326°
2026-04-27 05:21 19.93937 110.45556 82 ft 1 kts 326°
2026-04-27 05:21 19.93928 110.45562 82 ft 2 kts 322°
2026-04-27 05:22 19.93917 110.45573 82 ft 2 kts 309°
2026-04-27 05:22 19.93908 110.45586 82 ft 2 kts 298°
2026-04-27 05:22 19.93902 110.45601 82 ft 2 kts 288°
2026-04-27 05:22 19.93898 110.45617 82 ft 2 kts 277°
2026-04-27 05:23 19.93897 110.45628 82 ft 0 kts 270°
2026-04-27 05:23 19.93897 110.45634 82 ft 0 kts 269°
2026-04-27 05:26 19.93897 110.45622 82 ft 3 kts 269°
2026-04-27 05:26 19.93888 110.45585 82 ft 7 kts 233°
2026-04-27 05:26 19.93826 110.45564 82 ft 10 kts 202°
2026-04-27 05:27 19.93804 110.45487 82 ft 13 kts 269°
2026-04-27 05:27 19.93803 110.45373 82 ft 17 kts 270°
2026-04-27 05:27 19.93803 110.45232 82 ft 19 kts 271°
2026-04-27 05:27 19.93805 110.45107 82 ft 13 kts 289°
2026-04-27 05:28 19.93891 110.45083 82 ft 13 kts 359°
2026-04-27 05:28 19.93992 110.45082 82 ft 14 kts 360°
2026-04-27 05:28 19.94093 110.45082 82 ft 14 kts 359°
2026-04-27 05:28 19.94194 110.45081 82 ft 14 kts 360°
2026-04-27 05:29 19.94296 110.45081 82 ft 14 kts
2026-04-27 05:29 19.94402 110.45081 82 ft 15 kts 358°
2026-04-27 05:29 19.94521 110.45081 82 ft 17 kts 360°
2026-04-27 05:29 19.94646 110.45080 82 ft 17 kts 360°
2026-04-27 05:30 19.94768 110.45080 82 ft 17 kts 360°
2026-04-27 05:30 19.94891 110.45081 82 ft 16 kts 359°
2026-04-27 05:30 19.94993 110.45059 82 ft 13 kts 316°
2026-04-27 05:30 19.95056 110.44981 82 ft 13 kts 310°
2026-04-27 05:31 19.95119 110.44903 82 ft 13 kts 310°
2026-04-27 05:31 19.95185 110.44828 82 ft 13 kts 332°
2026-04-27 05:31 19.95266 110.44817 82 ft 11 kts 357°
2026-04-27 05:31 19.95337 110.44845 82 ft 11 kts 38°
2026-04-27 05:32 19.95369 110.44897 82 ft 6 kts 75°
2026-04-27 05:32 19.95372 110.44923 82 ft 0 kts 89°
2026-04-27 05:33 19.95371 110.45105 82 ft 62 kts 88°
2026-04-27 05:33 19.95376 110.45851 83 ft 131 kts 89°
2026-04-27 05:33 19.95382 110.46989 233 ft 165 kts 92°
2026-04-27 05:33 19.95392 110.48240 767 ft 169 kts 92°
2026-04-27 05:34 19.95759 110.49397 1371 ft 178 kts 49°
2026-04-27 05:34 19.96902 110.49869 1970 ft 186 kts 358°
2026-04-27 05:34 19.98138 110.49471 2302 ft 187 kts 339°
2026-04-27 05:34 19.99400 110.48959 2481 ft 200 kts 339°
2026-04-27 05:35 20.00747 110.48401 2698 ft 211 kts 337°
2026-04-27 05:35 20.02189 110.47777 2907 ft 225 kts 338°
2026-04-27 05:35 20.03698 110.47118 3121 ft 241 kts 338°
2026-04-27 05:35 20.05303 110.46424 3318 ft 260 kts 338°
2026-04-27 05:36 20.07043 110.45682 3680 ft 273 kts 338°
2026-04-27 05:36 20.08833 110.44919 4240 ft 277 kts 338°
2026-04-27 05:36 20.10640 110.44146 4907 ft 277 kts 337°
2026-04-27 05:36 20.12408 110.43388 5530 ft 278 kts 336°
2026-04-27 05:37 20.14256 110.42589 6158 ft 280 kts 337°
2026-04-27 05:37 20.16073 110.41803 6776 ft 281 kts 336°
2026-04-27 05:37 20.17894 110.41019 7397 ft 281 kts 336°
2026-04-27 05:37 20.19706 110.40242 7988 ft 282 kts 336°
2026-04-27 05:38 20.21515 110.39467 8575 ft 282 kts 336°
2026-04-27 05:38 20.23347 110.38680 9158 ft 282 kts 336°
2026-04-27 05:38 20.24500 110.38184 9517 ft 283 kts 336°
2026-04-27 05:38 20.26384 110.37457 10047 ft 286 kts 339°
2026-04-27 05:39 20.28323 110.36785 10292 ft 298 kts 340°
2026-04-27 05:39 20.30358 110.36089 10530 ft 310 kts 340°
2026-04-27 05:39 20.32479 110.35362 10766 ft 323 kts 340°
2026-04-27 05:39 20.34647 110.34618 10986 ft 335 kts 340°
2026-04-27 05:40 20.36915 110.33843 11194 ft 346 kts 340°
2026-04-27 05:40 20.39252 110.33041 11416 ft 356 kts 340°
2026-04-27 05:40 20.41664 110.32214 11839 ft 360 kts 340°
2026-04-27 05:40 20.44044 110.31399 12361 ft 361 kts 340°
2026-04-27 05:41 20.46445 110.30573 12831 ft 361 kts 339°
2026-04-27 05:41 20.48890 110.29871 13228 ft 367 kts 346°
2026-04-27 05:41 20.51448 110.29533 13666 ft 371 kts 354°
2026-04-27 05:41 20.54024 110.29559 14091 ft 375 kts 360°
2026-04-27 05:42 20.56663 110.29725 14497 ft 377 kts
2026-04-27 05:42 20.59298 110.29911 14856 ft 381 kts
2026-04-27 05:42 20.61970 110.30099 15244 ft 383 kts
2026-04-27 05:42 20.64641 110.30281 15584 ft 385 kts
2026-04-27 05:43 20.67296 110.30457 15923 ft 388 kts
2026-04-27 05:43 20.70006 110.30637 16269 ft 391 kts
2026-04-27 05:43 20.72745 110.30817 16610 ft 393 kts 360°
2026-04-27 05:43 20.75490 110.30998 16971 ft 395 kts 360°
2026-04-27 05:44 20.78252 110.31181 17307 ft 398 kts 360°
2026-04-27 05:44 20.81040 110.31367 17597 ft 400 kts 360°
2026-04-27 05:44 20.83797 110.31545 17888 ft 403 kts 360°
2026-04-27 05:44 20.86639 110.31732 18221 ft 404 kts 360°
2026-04-27 05:45 20.89444 110.31916 18505 ft 407 kts 359°
2026-04-27 05:45 20.92281 110.32104 18811 ft 410 kts 360°
2026-04-27 05:45 20.95149 110.32295 19106 ft 412 kts 359°
2026-04-27 05:45 20.98022 110.32484 19425 ft 413 kts 359°
2026-04-27 05:46 21.00926 110.32664 19719 ft 416 kts 359°
2026-04-27 05:46 21.03801 110.32817 20014 ft 418 kts 358°
2026-04-27 05:46 21.06720 110.32970 20316 ft 419 kts 358°
2026-04-27 05:46 21.09661 110.32970 20558 ft 416 kts 348°
2026-04-27 05:47 21.12379 110.32080 20769 ft 408 kts 328°
2026-04-27 05:47 21.14642 110.30347 21051 ft 399 kts 310°
2026-04-27 05:47 21.16292 110.27994 21333 ft 392 kts 295°
2026-04-27 05:47 21.17580 110.25414 21613 ft 393 kts 294°
2026-04-27 05:48 21.18868 110.22814 21807 ft 397 kts 294°
2026-04-27 05:48 21.20178 110.20176 21952 ft 403 kts 294°
2026-04-27 05:48 21.21492 110.17548 22219 ft 404 kts 294°
2026-04-27 05:48 21.22824 110.14892 22546 ft 404 kts 294°
2026-04-27 05:49 21.24147 110.12253 22822 ft 404 kts 294°
2026-04-27 05:49 21.25473 110.09611 23063 ft 405 kts 294°
2026-04-27 05:49 21.26805 110.06956 23286 ft 407 kts 294°
2026-04-27 05:49 21.28162 110.04253 23548 ft 408 kts 295°
2026-04-27 05:50 21.29505 110.01576 23821 ft 409 kts 295°
2026-04-27 05:50 21.30856 109.98885 24107 ft 409 kts 295°
2026-04-27 05:50 21.32194 109.96217 24334 ft 410 kts 295°
2026-04-27 05:50 21.33551 109.93519 24542 ft 412 kts 295°
2026-04-27 05:51 21.34904 109.90826 24795 ft 413 kts 294°
2026-04-27 05:51 21.36270 109.88104 25052 ft 413 kts 294°
2026-04-27 05:51 21.37636 109.85384 25258 ft 414 kts 295°
2026-04-27 05:51 21.38995 109.82670 25433 ft 417 kts 295°
2026-04-27 05:52 21.40359 109.79945 25622 ft 418 kts 295°
2026-04-27 05:52 21.41728 109.77203 25863 ft 418 kts 295°
2026-04-27 05:52 21.43111 109.74435 26039 ft 420 kts 295°
2026-04-27 05:52 21.44487 109.71678 26245 ft 420 kts 296°
2026-04-27 05:53 21.45863 109.68921 26490 ft 420 kts 295°
2026-04-27 05:53 21.47244 109.66151 26648 ft 422 kts 295°
2026-04-27 05:53 21.48635 109.63362 26845 ft 422 kts 296°
2026-04-27 05:53 21.50010 109.60597 27039 ft 423 kts 296°
2026-04-27 05:54 21.51388 109.57832 27219 ft 424 kts 296°
2026-04-27 05:54 21.52789 109.55019 27408 ft 425 kts 296°
2026-04-27 05:54 21.54167 109.52245 27650 ft 424 kts 296°
2026-04-27 05:54 21.55564 109.49435 27947 ft 421 kts 296°
2026-04-27 05:55 21.57146 109.46793 28179 ft 424 kts 307°
2026-04-27 05:55 21.59323 109.44647 28369 ft 430 kts 321°
2026-04-27 05:55 21.61950 109.43138 28568 ft 437 kts 335°
2026-04-27 05:55 21.64962 109.42342 28787 ft 445 kts 347°
2026-04-27 05:56 21.68038 109.41928 29074 ft 443 kts 348°
2026-04-27 05:56 21.71104 109.41541 29272 ft 443 kts 348°
2026-04-27 05:56 21.74141 109.41158 29493 ft 443 kts 348°
2026-04-27 05:56 21.77199 109.40770 29767 ft 442 kts 348°
2026-04-27 05:57 21.80240 109.40382 30044 ft 440 kts 348°
2026-04-27 05:57 21.83307 109.39987 30280 ft 440 kts 348°
2026-04-27 05:57 21.86347 109.39594 30542 ft 438 kts 348°
2026-04-27 05:57 21.89380 109.39203 30771 ft 437 kts 348°
2026-04-27 05:58 21.92372 109.38815 30994 ft 437 kts 348°
2026-04-27 05:58 21.95386 109.38425 31214 ft 436 kts 348°
2026-04-27 05:58 21.98410 109.38032 31396 ft 437 kts 349°
2026-04-27 05:58 22.01454 109.37636 31552 ft 438 kts 349°
2026-04-27 05:59 22.04496 109.37241 31722 ft 438 kts 349°
2026-04-27 05:59 22.07513 109.36848 31914 ft 438 kts 349°
2026-04-27 05:59 22.10547 109.36455 32134 ft 437 kts 349°
2026-04-27 05:59 22.13554 109.36065 32339 ft 437 kts 349°
2026-04-27 06:00 22.19591 109.35281 32644 ft 438 kts 350°
2026-04-27 06:00 22.22665 109.34981 32830 ft 439 kts 353°
2026-04-27 06:00 22.25712 109.34851 32917 ft 441 kts 355°
2026-04-27 06:01 22.31892 109.35128 32931 ft 444 kts
2026-04-27 06:01 22.38056 109.36101 32947 ft 447 kts
2026-04-27 06:02 22.44155 109.37303 32962 ft 448 kts
2026-04-27 06:02 22.50323 109.38524 32971 ft 448 kts
2026-04-27 06:03 22.56431 109.39730 32975 ft 448 kts
2026-04-27 06:03 22.62580 109.40942 32968 ft 448 kts
2026-04-27 06:04 22.68686 109.42145 32963 ft 448 kts
2026-04-27 06:04 22.74922 109.43375 32961 ft 449 kts
2026-04-27 06:05 22.81116 109.44597 32959 ft 448 kts
2026-04-27 06:05 22.87237 109.45806 32950 ft 448 kts
2026-04-27 06:06 22.93397 109.47024 32942 ft 449 kts
2026-04-27 06:06 22.99558 109.48246 32934 ft 449 kts
2026-04-27 06:07 23.05766 109.49477 32937 ft 449 kts
2026-04-27 06:07 23.11910 109.50698 32942 ft 451 kts
2026-04-27 06:08 23.18101 109.51929 32950 ft 452 kts
2026-04-27 06:08 23.24334 109.53169 32960 ft 453 kts
2026-04-27 06:09 23.30540 109.54407 32955 ft 454 kts
2026-04-27 06:09 23.36739 109.55643 32955 ft 455 kts
2026-04-27 06:10 23.42996 109.56890 32949 ft 458 kts
2026-04-27 06:10 23.49287 109.58148 32946 ft 459 kts
2026-04-27 06:11 23.55600 109.59412 32943 ft 460 kts
2026-04-27 06:11 23.61878 109.60671 32947 ft 461 kts
2026-04-27 06:12 23.68197 109.61935 32956 ft 462 kts
2026-04-27 06:12 23.74552 109.63203 32964 ft 462 kts
2026-04-27 06:13 23.80892 109.64471 32972 ft 464 kts
2026-04-27 06:13 23.87248 109.65748 32966 ft 465 kts
2026-04-27 06:14 23.93603 109.67024 32958 ft 466 kts
2026-04-27 06:14 23.99995 109.68310 32946 ft 466 kts
2026-04-27 06:15 24.06413 109.69602 32950 ft 467 kts
2026-04-27 06:15 24.12791 109.70888 32950 ft 467 kts
2026-04-27 06:16 24.19229 109.72186 32953 ft 467 kts
2026-04-27 06:16 24.25638 109.73480 32956 ft 469 kts
2026-04-27 06:17 24.31790 109.74725 32956 ft 470 kts
2026-04-27 06:17 24.38466 109.76077 32955 ft 470 kts
2026-04-27 06:18 24.44905 109.77383 32950 ft 470 kts
2026-04-27 06:18 24.51384 109.78699 32947 ft 471 kts
2026-04-27 06:19 24.57818 109.80004 32958 ft 471 kts
2026-04-27 06:19 24.64240 109.81587 32957 ft 472 kts 14°
2026-04-27 06:20 24.70470 109.83947 32966 ft 475 kts 21°
2026-04-27 06:20 24.76427 109.87085 32977 ft 477 kts 27°
2026-04-27 06:21 24.82267 109.90582 32976 ft 477 kts 28°
2026-04-27 06:21 24.88094 109.94072 32974 ft 478 kts 28°
2026-04-27 06:22 24.93989 109.97512 32963 ft 479 kts 25°
2026-04-27 06:22 25.00168 110.00274 32962 ft 478 kts 17°
2026-04-27 06:23 25.06605 110.02112 32967 ft 477 kts
2026-04-27 06:23 25.13203 110.03065 32967 ft 477 kts
2026-04-27 06:24 25.19769 110.03748 32969 ft 477 kts
2026-04-27 06:24 25.26405 110.04455 32973 ft 477 kts
2026-04-27 06:25 25.33050 110.04861 32974 ft 475 kts 354°
2026-04-27 06:25 25.39482 110.03355 32992 ft 470 kts 337°
2026-04-27 06:26 25.45174 109.99902 33004 ft 464 kts 320°
2026-04-27 06:26 25.49789 109.94978 33023 ft 461 kts 309°
2026-04-27 06:27 25.54083 109.89703 33019 ft 459 kts 309°
2026-04-27 06:27 25.58361 109.84473 33005 ft 458 kts 309°
2026-04-27 06:28 25.62627 109.79294 33000 ft 458 kts 310°
2026-04-27 06:28 25.66925 109.74078 33003 ft 458 kts 310°
2026-04-27 06:29 25.71240 109.68870 32994 ft 458 kts 312°
2026-04-27 06:29 25.76357 109.64600 32981 ft 464 kts 329°
2026-04-27 06:30 25.82380 109.62083 32990 ft 469 kts 345°
2026-04-27 06:30 25.88905 109.61525 33003 ft 473 kts
2026-04-27 06:31 25.95532 109.61921 33011 ft 474 kts
2026-04-27 06:31 26.02149 109.62344 33014 ft 475 kts
2026-04-27 06:32 26.08769 109.62733 33014 ft 475 kts
2026-04-27 06:32 26.15360 109.63109 33010 ft 475 kts
2026-04-27 06:33 26.21975 109.63486 33010 ft 475 kts
2026-04-27 06:33 26.28543 109.63860 33010 ft 474 kts
2026-04-27 06:34 26.35136 109.64236 33010 ft 472 kts
2026-04-27 06:34 26.41701 109.64614 33014 ft 472 kts
2026-04-27 06:35 26.48291 109.64998 33016 ft 472 kts
2026-04-27 06:35 26.54859 109.65381 33020 ft 472 kts
2026-04-27 06:36 26.61404 109.65765 33014 ft 471 kts
2026-04-27 06:36 26.67877 109.66147 33007 ft 471 kts
2026-04-27 06:37 26.74428 109.66534 32998 ft 470 kts